Location: Chiroubles
(46.1812°N, 4.6660°E)
Time: 03:05:45
(UTC+00:00)

Cosmos 1802 Rocket - Pass Details

Date: 15 August 2020
Orbit: 953 x 1012 km, 82.9° (Epoch: 27 September)

Event Time Altitude Azimuth Distance (km) Brightness Sun altitude
Exits shadow 20:54:57 31° 139° (SE) 1,673 4.6 -18.9°
Maximum altitude 20:57:26 45° 90° (E) 1,332 4.4 -19.2°
Drops below altitude 10° 21:03:24 10° 20° (NNE) 2,761 6.7 -19.9°
Sets 21:06:00 0° 14° (NNE) 3,705 7.5 -20.2°
